Regional Weather Roundup
Issued by NWS Charleston, SC

Current Version | Previous Version | Graphics & Text | Print | Product List | Glossary On
Versions: 1 2 3 4 5 6 7 8 9 10 11 12 13 14 15 16 17 18 19 20 21 22 23 24 25 26 27 28 29 30 31 32 33 34 35 36 37 38 39 40 41 42 43 44 45 46 47 48 49 50
066
ASUS42 KCHS 281127
RWRCHS

REGIONAL WEATHER ROUNDUP
NATIONAL WEATHER SERVICE CHARLESTON SC
700 AM EDT SUN MAY 28 2017

NOTE: "FAIR" INDICATES FEW OR NO CLOUDS BELOW 12,000 FEET WITH NO
SIGNIFICANT WEATHER AND/OR OBSTRUCTIONS TO VISIBILITY.

NOT ALL STATIONS ARE QUALITY CONTROLLED. USE DATA WITH CAUTION...
ESPECIALLY DEWPOINT OBSERVATIONS.

SCZ027-030-031-034>040-042>050-281200-
...SOUTHEAST SOUTH CAROLINA...

CITY           SKY/WX    TMP DP  RH WIND       PRES   REMARKS
N CHARLESTON   PTCLDY    72  67  84 SW8       29.89R
WATERFRONT PRK   N/A     73  70  90 VRB3      29.87S
JOHNS ISLAND   FAIR      75  70  83 SW7       29.91S
PINOPOLIS        N/A     72  64  78 SW7       29.79S
MONCKS CORNER  FAIR      70  64  83 SW6       29.89R
SUMMERVILLE    FAIR      68  63  83 S3        29.90S
BEAUFORT MCAS  CLEAR     71  67  87 SW5       29.92R
BEAUFORT ARPT  FAIR      72  68  88 SW3       29.92R HAZE
HILTON HEAD IS CLEAR     73  66  78 SW6       29.93R
WALTERBORO     SUNNY     68  63  83 SW7       29.91S
ALLENDALE      FAIR      70  64  83 CALM      29.90R

...SOUTHERN MIDLANDS AND PEE DEE...

CITY           SKY/WX    TMP DP  RH WIND       PRES   REMARKS
GEORGETOWN     FAIR      68  68 100 SW5       29.88S
KINGSTREE      FAIR      70  63  78 CALM      29.87R
ORANGEBURG     CLEAR     67  64  90 SW3       29.88R
BARNWELL       FAIR      72  68  88 W5        29.91R
AIKEN          FAIR      70  64  83 W5        29.94R
MANNING        FAIR      72  68  88 SW16      29.87S
COLUMBIA       MOCLDY    73  67  81 SW5       29.85R
SUMTER         CLEAR     71  65  81 S5        29.83R
FLORENCE       PTCLDY    69  64  84 SW6       29.84R
MYRTLE BEACH   CLEAR     72  66  83 SW7       29.87S
N MYRTLE BEACH CLOUDY    73  69  87 SW9       29.85S

$$

GAZ063-065-086>088-099>101-113>116-118-119-134>141-150-281200-
...SOUTHEAST GEORGIA...

CITY           SKY/WX    TMP DP  RH WIND       PRES   REMARKS
SAVANNAH ARPT  CLOUDY    69  62  78 SW3       29.93R
HUNTER AAF     CLOUDY    70  68  94 CALM      29.91R
FORT STEWART   MOCLDY    69  63  81 CALM      29.93R
STATESBORO     PTCLDY    73  70  89 W6        29.92S
SYLVANIA       MOSUNNY   72  67  85 CALM      29.92S
CLAXTON        FAIR     N/A N/A N/A CALM      29.93F

...CSRA...CENTRAL AND FAR SOUTHEAST GEORGIA...

CITY           SKY/WX    TMP DP  RH WIND       PRES   REMARKS
THOMSON        PTCLDY    72  66  81 NW7       29.98R
AUGUSTA-BUSH   PTCLDY    74  67  78 SW9       29.89R
AUGUSTA-DANIEL MOCLDY    75  64  68 W5        29.91R
SWAINSBORO     FAIR      70  66  88 W5        29.96R
VIDALIA        PTCLDY    70  68  94 SW3       29.95R
EASTMAN        FAIR      72  71  94 W3        30.00R
HAZLEHURST     FAIR      73  73 100 SW5       29.95S
ALMA           PTCLDY    66  64  93 CALM      29.96R
WAYCROSS       MOCLDY    71  71 100 W6        29.97R
JESUP          FAIR      68  64  88 CALM      29.96R
BAXLEY         FAIR      70  70 100 W3        29.96S
BRUNSWICK      CLEAR     72  70  94 W5        29.96R
SAINT SIMONS   CLEAR     72  70  93 W8        29.95R

$$

SCZ027-028-034-036>038-045-046-048>050-GAZ119-141-281200-
...LAKE AND SUPPLEMENTAL COASTAL OBSERVATIONS...

STATION/POSITION TIME  TEMP    WIND        PRES    WAVE   SWELL
                       AIR SEA DIR/SP/G            HT/PER HT/PER/DIR
                 (UTC) (F)     (DEG/KT/KT) (MB)    (FT/S) (FT/S/D)
WINYAH BAY       1030   71     220/  3     1011.0F
LAKE MURRAY      1030   74     220/  8/ 10 1009.8S
ACE BASIN NERRS  1030   69        CALM     1013.0S
FORT PULASKI     1100   72     250/  3/  4 1013.9
SAPELO ISLAND    1100   72     260/  3     1014.0

$$

ANZ835-935-AMZ111-154-330-350-352-354-370-450-454-472-281200-
...C-MAN AND BUOY OBSERVATIONS...

STATION/POSITION TIME  TEMP    WIND        PRES    WAVE   SWELL
                       AIR SEA DIR/SP/G            HT/PER HT/PER/DIR
                 (UTC) (F)     (DEG/KT/KT) (MB)    (FT/S) (FT/S/D)
BUOY 41004       1110   75 75  230/ 10/ 12 1012.5
BUOY 41008       1050   77 77  260/ 10/ 14 1013.5R   2/ 7   2/ 90/ 7
FOLLY BEACH CMAN 1100   76     220/  7/  9 1013.0R
CAPERS NEARSHORE 1108   81 76  230/ 10/ 14 1012.2R
FRIPP NEARSHORE  1108   78 77  250/  8/ 12 1013.1R


STATION/POSITION TIME  TEMP    WIND        PRES    WAVE   SWELL
                       AIR SEA DIR/SP/G            HT/PER HT/PER/DIR
                 (UTC) (F)     (DEG/KT/KT) (MB)    (FT/S) (FT/S/D)
5E ST. MARYS GA  1100      78                N/A     2/ 7
FRYING PAN BUOY  1110   75 75  230/ 16/ 17 1011.3
BUOY 41025       1050   75 76  240/ 14/ 16 1010.3R   3/ 6   2/130/ 8
CAPE LOOKOUT NC  1100   75     240/  6/  8 1010.4R
BUOY 41002       1050   76 77  230/ 14/ 16 1014.1R   3/ 7   2/110/12
BUOY 41010       1110   79 79  200/  8/  8 1015.3
ST AUGUSTINE FL  1100   69 76  240/  6/  8 1016.1R


$$




USA.gov is the U.S. government's official web portal to all federal, state and local government web resources and services.